Tracking 26492 objects as of 8-Dec-2022
HD Live streaming from Space Station
objects crossing your sky now

CP5

Track CP5 now!
10-day predictions
CP5 is classified as:


NORAD ID: 38763
Int'l Code: 2012-048F
Perigee: 468.9 km
Apogee: 681.7 km
Inclination: 64.7 °
Period: 96.0 minutes
Semi major axis: 6946 km
RCS: Unknown
Launch date: September 13, 2012
Source: United States (US)
Launch site: AIR FORCE WESTERN TEST RANGE (AFWTR)

Uplink (MHz):
Downlink (MHz): 437.405
Beacon (MHz): 437.405
Mode: 1200bps AFSK CW
Call sign: CP5
Status: Inactive

aabbcc
Your satellite tracking list
Your tracking list is empty




NASA's NSSDC Master Catalog

Two Line Element Set (TLE):
1 38763U 12048F   22340.31240300 +.00004988 +00000+0 +32820-3 0  5819
2 38763  64.6639 260.0046 0153136 213.8116 145.3164 14.99586773 87044
Source of the keplerian elements: Caltech